Location: ?????
(32.7281°N, 34.9563°E)
Time: 17:21:56
(UTC+00:00)

CZ-2D R/B - Pass Details

Date: 29 October 2020
Orbit: 522 x 537 km, 97.4° (Epoch: 29 November)

Event Time Altitude Azimuth Distance (km) Brightness Sun altitude
Rises 15:41:52 0° 150° (SSE) 2,649 6.6 -11.1°
Reaches altitude 10° 15:44:04 10° 142° (SE) 1,762 5.6 -11.6°
Maximum altitude 15:47:35 37° 74° (ENE) 834 3.7 -12.3°
Drops below altitude 10° 15:51:06 10° 7° (N) 1,766 5.7 -13.0°
Sets 15:53:18 0° 359° (N) 2,656 6.7 -13.5°
